Regional Weather Roundup
Issued by NWS

Home | Current Version | Previous Version | Graphics & Text | Print | Product List | Glossary On
Versions: 1 2 3 4 5 6 7 8 9 10 11 12 13 14 15 16 17 18 19 20 21 22 23 24 25 26 27 28 29 30 31 32 33 34 35 36 37 38 39 40 41 42 43 44 45 46 47 48 49 50
000
ASUS45 KSLC 032010
RWRUT

UTAH REGIONAL WEATHER ROUNDUP
NATIONAL WEATHER SERVICE SALT LAKE CITY UT
200 PM MDT TUE MAY 03 2016

UTZ001>011-023>025-032100-

NORTHERN UTAH

CITY           SKY/WX    TMP DP  RH WIND       PRES   REMARKS
BRIGHAM CITY   SUNNY     68  35  30 S5        30.22F
HILL AFB       SUNNY     66  38  35 VRB7      30.23F
LOGAN          SUNNY     68  34  28 NW3       30.22F
OGDEN          SUNNY     69  37  30 NW8       30.21F
PROVO AIRPORT  MOSUNNY   66  36  32 VRB6      30.21F
SALT LAKE CITY MOSUNNY   71  33  24 NW8       30.20F
VERNAL         SUNNY     66  23  19 CALM      30.24F
WENDOVER       SUNNY     66  36  32 SE6       30.23F
HEBER CITY     SUNNY     66  25  20 W3        30.21F

$$

UTZ012>022-026-027-032100-

SOUTHERN/CENTRAL UTAH

CITY           SKY/WX    TMP DP  RH WIND       PRES   REMARKS
BLANDING       SUNNY     67  25  20 NE12G21   30.28F
BRYCE CANYON   SUNNY     58  25  28 SE12      30.31F
CEDAR CITY     SUNNY     65  36  34 VRB5      30.19F
DELTA          SUNNY     68  28  22 SE8       30.21F
HANKSVILLE     SUNNY     70  27  19 N5        30.21F
MILFORD        SUNNY     69  30  23 VRB3G17   30.19F
MOAB/CYNLANDS  SUNNY     72  27  18 MISG      30.17F
PRICE          SUNNY     67  26  21 VRB3      30.23F
ST GEORGE      CLEAR     75  39  27 NW6       30.10F
KANAB          SUNNY     72  32  23 E8G21     30.23F

$$

REGIONAL REPORTS     COLORADO/ARIZONA

CITY           SKY/WX    TMP DP  RH WIND       PRES   REMARKS
CRAIG, CO      SUNNY     63  29  27 SE6       30.26F
GRAND JUNCTION SUNNY     68  30  24 NW6       30.18F
RIFLE          SUNNY     67  26  21 SE6       30.20F
MONTROSE       SUNNY     65  25  22 NW8       30.23F
CORTEZ         SUNNY     66  37  34 SW15      30.20F
PAGE, AZ       SUNNY     70  33  25 N9        30.18F
GRAND CANYON   SUNNY     62  31  31 NE13G22   30.25F
KINGMAN        SUNNY     80  28  15 N9G18     30.06F
FLAGSTAFF      SUNNY     57  35  43 NE9G22    30.26S

$$

REGIONAL REPORTS    NEVADA/IDAHO/WYOMING

CITY           SKY/WX    TMP DP  RH WIND       PRES   REMARKS
LAS VEGAS, NV  SUNNY     80  34  19 N7G17     30.02F
ELY            SUNNY     63  26  24 NE6       30.23F
ELKO           MOSUNNY   68  31  25 MISG      30.20F
POCATELLO, ID  SUNNY     71  32  23 N12       30.22F
BURLEY         SUNNY     69  36  29 CALM      30.17F
EVANSTON, WY   SUNNY     63  23  21 VRB6      30.29F
ROCK SPRINGS   SUNNY     62  22  21 MISG      30.29F
KEMMERER         N/A     63  18  17 CALM      30.31F

$$



USA.gov is the U.S. government's official web portal to all federal, state and local government web resources and services.